TimeAKDT,TemperatureF,Dew PointF,Humidity,Sea Level PressureIn,VisibilityMPH,Wind Direction,Wind SpeedMPH,Gust SpeedMPH,PrecipitationIn,Events,Conditions,WindDirDegrees,DateUTC
12:16 AM,51.8,51.8,100,30.51,10.0,Calm,Calm,-,0.00,,Overcast,0,2012-10-05 08:16:00
12:26 AM,51.8,51.8,100,30.52,8.0,Calm,Calm,-,0.00,,Overcast,0,2012-10-05 08:26:00
12:35 AM,51.8,51.8,100,30.52,8.0,Calm,Calm,-,0.00,,Overcast,0,2012-10-05 08:35:00
12:53 AM,52.0,52.0,100,30.52,6.0,Calm,Calm,-,0.00,,Overcast,0,2012-10-05 08:53:00
1:11 AM,51.8,51.8,100,30.52,3.0,Calm,Calm,-,N/A,,Overcast,0,2012-10-05 09:11:00
1:46 AM,51.8,51.8,100,30.52,1.8,Calm,Calm,-,N/A,,Overcast,0,2012-10-05 09:46:00
1:53 AM,52.0,52.0,100,30.53,1.2,Calm,Calm,-,N/A,,Overcast,0,2012-10-05 09:53:00
2:24 AM,51.8,51.8,100,30.52,1.5,Calm,Calm,-,0.01,,Overcast,0,2012-10-05 10:24:00
2:53 AM,52.0,52.0,100,30.53,2.0,Calm,Calm,-,0.01,,Overcast,0,2012-10-05 10:53:00
3:27 AM,51.8,51.8,100,30.52,3.0,Calm,Calm,-,N/A,,Overcast,0,2012-10-05 11:27:00
3:53 AM,52.0,52.0,100,30.52,2.5,Calm,Calm,-,N/A,,Overcast,0,2012-10-05 11:53:00
4:06 AM,51.8,51.8,100,30.52,3.0,Calm,Calm,-,N/A,,Overcast,0,2012-10-05 12:06:00
4:13 AM,51.8,51.8,100,30.52,1.8,Calm,Calm,-,N/A,,Overcast,0,2012-10-05 12:13:00
4:32 AM,51.8,51.8,100,30.52,3.0,East,3.5,-,N/A,,Overcast,100,2012-10-05 12:32:00
4:53 AM,52.0,52.0,100,30.52,10.0,Calm,Calm,-,N/A,,Overcast,0,2012-10-05 12:53:00
5:21 AM,51.8,51.8,100,30.52,2.0,Calm,Calm,-,N/A,,Overcast,0,2012-10-05 13:21:00
5:33 AM,51.8,51.8,100,30.52,1.8,Calm,Calm,-,N/A,,Overcast,0,2012-10-05 13:33:00
5:43 AM,51.8,51.8,100,30.52,2.0,Calm,Calm,-,N/A,,Overcast,0,2012-10-05 13:43:00
5:51 AM,51.8,51.8,100,30.52,1.8,ESE,3.5,-,0.01,,Overcast,110,2012-10-05 13:51:00
5:53 AM,51.1,51.1,100,30.52,2.0,ESE,3.5,-,0.01,,Overcast,110,2012-10-05 13:53:00
6:27 AM,51.8,51.8,100,30.52,2.5,Calm,Calm,-,0.00,,Overcast,0,2012-10-05 14:27:00
6:33 AM,51.8,51.8,100,30.52,4.0,Calm,Calm,-,0.00,,Overcast,0,2012-10-05 14:33:00
6:53 AM,51.8,51.8,100,30.51,2.0,ESE,3.5,-,N/A,,Overcast,110,2012-10-05 14:53:00
7:30 AM,51.8,51.8,100,30.52,3.0,Calm,Calm,-,N/A,,Overcast,0,2012-10-05 15:30:00
7:40 AM,51.8,51.8,100,30.52,3.0,Calm,Calm,-,N/A,,Overcast,0,2012-10-05 15:40:00
7:53 AM,52.0,52.0,100,30.53,2.0,Calm,Calm,-,N/A,,Overcast,0,2012-10-05 15:53:00
8:09 AM,51.8,51.8,100,30.53,2.0,Calm,Calm,-,0.01,,Overcast,0,2012-10-05 16:09:00
8:27 AM,51.8,51.8,100,30.53,1.0,Calm,Calm,-,0.01,Rain,Light Rain,0,2012-10-05 16:27:00
8:53 AM,52.0,52.0,100,30.53,1.0,Calm,Calm,-,0.01,,Overcast,0,2012-10-05 16:53:00
9:29 AM,51.8,51.8,100,30.53,2.0,Calm,Calm,-,N/A,,Overcast,0,2012-10-05 17:29:00
9:53 AM,52.0,52.0,100,30.53,2.0,NW,3.5,-,N/A,,Overcast,310,2012-10-05 17:53:00
10:08 AM,51.8,51.8,100,30.53,3.0,NNW,4.6,-,N/A,,Overcast,330,2012-10-05 18:08:00
10:53 AM,52.0,52.0,100,30.53,10.0,NW,4.6,-,N/A,,Overcast,310,2012-10-05 18:53:00
11:53 AM,53.1,53.1,100,30.53,10.0,NW,5.8,-,N/A,,Overcast,310,2012-10-05 19:53:00
12:53 PM,54.0,53.1,97,30.53,10.0,WNW,5.8,-,N/A,,Overcast,290,2012-10-05 20:53:00
1:16 PM,55.4,53.6,94,30.52,10.0,WNW,4.6,-,N/A,,Overcast,290,2012-10-05 21:16:00
1:35 PM,55.4,53.6,94,30.52,10.0,WNW,4.6,-,N/A,,Overcast,290,2012-10-05 21:35:00
1:53 PM,55.0,54.0,96,30.52,10.0,Calm,Calm,-,N/A,,Overcast,0,2012-10-05 21:53:00
2:16 PM,55.4,53.6,94,30.52,10.0,WNW,3.5,-,N/A,,Overcast,300,2012-10-05 22:16:00
2:42 PM,55.4,53.6,94,30.52,10.0,North,3.5,-,N/A,,Overcast,350,2012-10-05 22:42:00
2:53 PM,55.9,55.0,97,30.52,10.0,Calm,Calm,-,N/A,,Overcast,0,2012-10-05 22:53:00
3:02 PM,55.4,53.6,94,30.52,10.0,NW,3.5,-,N/A,,Overcast,310,2012-10-05 23:02:00
3:53 PM,54.0,54.0,100,30.51,10.0,WNW,11.5,-,N/A,,Overcast,300,2012-10-05 23:53:00
4:00 PM,53.6,53.6,100,30.51,10.0,WNW,9.2,-,N/A,,Overcast,300,2012-10-06 00:00:00
4:53 PM,54.0,53.1,97,30.51,10.0,NW,4.6,-,N/A,,Mostly Cloudy,320,2012-10-06 00:53:00
5:06 PM,53.6,53.6,100,30.50,10.0,NW,3.5,-,N/A,,Overcast,320,2012-10-06 01:06:00
5:53 PM,54.0,53.1,97,30.50,10.0,WNW,8.1,-,N/A,,Overcast,300,2012-10-06 01:53:00
6:00 PM,53.6,53.6,100,30.50,10.0,NW,9.2,-,N/A,,Mostly Cloudy,310,2012-10-06 02:00:00
6:53 PM,53.1,53.1,100,30.50,10.0,NNW,6.9,-,N/A,,Mostly Cloudy,330,2012-10-06 02:53:00
7:00 PM,53.6,53.6,100,30.49,10.0,NNW,5.8,-,N/A,,Mostly Cloudy,330,2012-10-06 03:00:00
7:53 PM,53.1,52.0,96,30.49,7.0,NW,10.4,-,N/A,,Mostly Cloudy,320,2012-10-06 03:53:00
8:00 PM,53.6,51.8,94,30.49,7.0,NW,6.9,-,N/A,,Overcast,320,2012-10-06 04:00:00
8:53 PM,52.0,52.0,100,30.49,7.0,NW,8.1,-,N/A,,Overcast,320,2012-10-06 04:53:00
9:32 PM,51.8,51.8,100,30.48,7.0,NNW,9.2,-,N/A,,Overcast,330,2012-10-06 05:32:00
9:45 PM,51.8,51.8,100,30.48,9.0,NW,6.9,-,N/A,,Overcast,320,2012-10-06 05:45:00
9:53 PM,52.0,52.0,100,30.48,10.0,NW,8.1,-,N/A,,Overcast,320,2012-10-06 05:53:00
10:53 PM,53.1,52.0,96,30.47,10.0,NW,10.4,-,N/A,,Overcast,320,2012-10-06 06:53:00
11:53 PM,52.0,52.0,100,30.47,10.0,Calm,Calm,-,N/A,,Overcast,0,2012-10-06 07:53:00